Weather History for KPRN - January, 2014

Change the Weather History Date:

Friday, January 3, 2014

  Actual Average Record
Temperature  
Mean Temperature 31 °F -  
Max Temperature 39 °F 59 °F 78 °F (1982)
Min Temperature 23 °F 38 °F 12 °F (1979)
Degree Days  
Heating Degree Days 34    
Moisture  
Dew Point 16 °F    
Average Humidity 58    
Maximum Humidity 88    
Minimum Humidity 34    
Precipitation  
Precipitation 0.00 in - - ()
Sea Level Pressure  
Sea Level Pressure 30.36 in    
Wind  
Wind Speed 10 mph (North)    
Max Wind Speed 20 mph    
Max Gust Speed 25 mph    
Visibility 10 miles    
Events      
Averages and records for this station are not official NWS values.
T = Trace of Precipitation, MM = Missing Value Source: NWS Daily Summary

Daily Weather History Graph

Daily Weather History Graph

Search for Another Location

Airport or City:

Trip Planner

Search our weather history database for the weather conditions in past years. The results will help you decide how hot, cold, wet, or windy it might be!

Date:

Astronomy

Jan. 03, 2014 Rise Set
Actual Time 6:47 AM CST 4:55 PM CST
Civil Twilight 6:20 AM CST 5:21 PM CST
Nautical Twilight 5:49 AM CST 5:52 PM CST
Astronomical Twilight 5:20 AM CST 6:21 PM CST
Moon 8:23 AM CST (1/3) 7:51 PM CST (1/3)
Length of Visible Light 11h 01m
Length of Day
10h 08m
Waxing Crescent, 8% of the Moon is Illuminated
Jan 3
Waxing Crescent
Jan 7
First Quarter
Jan 15
Full
Jan 23
Last Quarter
Jan 30
New

Hourly Weather History & Observations

Time (CST) Temp. Windchill Dew Point Humidity Pressure Visibility Wind Dir Wind Speed Gust Speed Precip Events Conditions
12:56 AM 28.9 °F 18.6 °F 19.0 °F 67% 30.29 in 10.0 mi NW 12.7 mph 19.6 mph N/A   Mostly Cloudy
1:56 AM 28.0 °F 18.6 °F 18.0 °F 66% 30.30 in 10.0 mi North 10.4 mph 21.9 mph N/A   Mostly Cloudy
2:05 AM 28.4 °F 15.4 °F 17.6 °F 64% 30.30 in 10.0 mi North 19.6 mph 25.3 mph N/A   Scattered Clouds
2:56 AM 27.0 °F 15.6 °F 14.0 °F 58% 30.31 in 10.0 mi North 13.8 mph - N/A   Clear
3:56 AM 26.1 °F 16.2 °F 14.0 °F 60% 30.32 in 10.0 mi NNW 10.4 mph - N/A   Clear
4:56 AM 25.0 °F 14.8 °F 14.0 °F 63% 30.34 in 10.0 mi NNW 10.4 mph - N/A   Clear
5:56 AM 24.1 °F 12.5 °F 12.9 °F 62% 30.36 in 10.0 mi North 12.7 mph 20.7 mph N/A   Clear
6:56 AM 23.0 °F 13.1 °F 12.9 °F 65% 30.41 in 10.0 mi North 9.2 mph - N/A   Clear
7:56 AM 25.0 °F 14.8 °F 12.9 °F 60% 30.43 in 10.0 mi North 10.4 mph - N/A   Clear
8:56 AM 27.0 °F 15.6 °F 12.9 °F 56% 30.43 in 10.0 mi North 13.8 mph - N/A   Clear
9:56 AM 30.0 °F 20.5 °F 14.0 °F 51% 30.45 in 10.0 mi North 11.5 mph - N/A   Clear
10:56 AM 32.0 °F 23.0 °F 14.0 °F 48% 30.42 in 10.0 mi NNE 11.5 mph - N/A   Clear
11:56 AM 35.1 °F 27.4 °F 15.1 °F 44% 30.39 in 10.0 mi ENE 10.4 mph - N/A   Clear
12:56 PM 37.0 °F 30.4 °F 14.0 °F 39% 30.36 in 10.0 mi NE 9.2 mph 18.4 mph N/A   Clear
1:56 PM 39.0 °F 32.3 °F 14.0 °F 36% 30.35 in 10.0 mi NNE 10.4 mph - N/A   Clear
2:56 PM 39.0 °F 31.8 °F 12.9 °F 34% 30.34 in 10.0 mi North 11.5 mph - N/A   Clear
3:56 PM 37.9 °F 30.9 °F 12.9 °F 36% 30.34 in 10.0 mi NNE 10.4 mph - N/A   Clear
4:56 PM 36.0 °F 32.1 °F 14.0 °F 41% 30.34 in 10.0 mi NNE 4.6 mph - N/A   Clear
5:56 PM 33.1 °F 30.0 °F 15.1 °F 48% 30.35 in 10.0 mi NNW 3.5 mph - N/A   Clear
6:56 PM 28.9 °F - 21.9 °F 75% 30.35 in 10.0 mi Calm Calm - N/A   Clear
7:56 PM 27.0 °F - 21.9 °F 81% 30.36 in 10.0 mi Calm Calm - N/A   Clear
8:56 PM 26.1 °F - 23.0 °F 88% 30.35 in 10.0 mi Calm Calm - N/A   Clear
9:56 PM 27.0 °F - 21.0 °F 78% 30.35 in 10.0 mi Calm Calm - N/A   Clear
10:56 PM 27.0 °F 21.6 °F 18.0 °F 69% 30.35 in 10.0 mi ESE 4.6 mph - N/A   Clear
11:56 PM 28.0 °F 24.2 °F 17.1 °F 63% 30.32 in 10.0 mi East 3.5 mph - N/A   Clear